Weather History for Collingwood, ON

Change the Weather History Date:

Sunday, November 11, 2012

  Actual Average Record
Temperature  
Mean Temperature 54 °F -  
Max Temperature 65 °F - - ()
Min Temperature 42 °F - - ()
Degree Days  
Heating Degree Days 12    
Growing Degree Days 4 (Base 50)    
Moisture  
Dew Point 44 °F    
Average Humidity 63    
Maximum Humidity 93    
Minimum Humidity 33    
Precipitation  
Precipitation 0.00 in - - ()
Sea Level Pressure  
Sea Level Pressure 30.07 in    
Wind  
Wind Speed 7 mph ()    
Max Wind Speed 13 mph    
Max Gust Speed 21 mph    
T = Trace of Precipitation, MM = Missing Value Source: Averaged Metar Reports

Daily Weather History Graph

Daily Weather History Graph

Search for Another Location

Airport:

Trip Planner

Search our weather history database for the weather conditions in past years. The results will help you decide how hot, cold, wet, or windy it might be!

Date:

Astronomy

Nov. 11, 2012 Rise Set
Actual Time 7:12 AM EST 4:56 PM EST
Civil Twilight 6:41 AM EST 5:28 PM EST
Nautical Twilight 6:06 AM EST 6:03 PM EST
Astronomical Twilight 5:32 AM EST 6:37 PM EST
Moon 4:19 AM EST (11/11) 3:23 PM EST (11/11)
Length of Visible Light 10h 46m
Length of Day
9h 44m
Waning Crescent, 7% of the Moon is Illuminated
Nov 11
Waning Crescent
Nov 13
New
Nov 20
First Quarter
Nov 28
Full
Dec 6
Last Quarter

Hourly Weather History & Observations

Time (EST) Temp. Windchill Dew Point Humidity Pressure Visibility Wind Dir Wind Speed Gust Speed Precip Events Conditions
12:00 AM 42.8 °F 38.6 °F 40.6 °F 92% 30.11 in - SE 6.9 mph - N/A   Unknown
1:00 AM 44 °F - 42 °F 89% 30.09 in - SE 9.2 mph - -  
1:00 AM 43.7 °F 38.6 °F 41.7 °F 93% 30.09 in - SE 9.2 mph - N/A   Unknown
2:00 AM 44.6 °F 38.4 °F 42.4 °F 92% 30.07 in - SSE 12.7 mph 19.6 mph N/A   Unknown
3:00 AM 45.5 °F 41.3 °F 43.3 °F 92% 30.08 in - SSE 8.1 mph - N/A   Unknown
4:00 AM 51.8 °F - 46.2 °F 81% 30.09 in - South 4.6 mph - N/A   Unknown
5:00 AM 51.8 °F - 47.8 °F 86% 30.11 in - South 4.6 mph - N/A   Unknown
6:00 AM 57.2 °F - 46.6 °F 68% 30.10 in - South 4.6 mph - N/A   Unknown
7:00 AM 58 °F - 45 °F 52% 30.11 in - SE 4.6 mph - -  
7:00 AM 57.7 °F - 45.0 °F 62% 30.11 in - SE 4.6 mph - N/A   Unknown
8:00 AM 56.3 °F - 45.0 °F 66% 30.10 in - SE 8.1 mph - N/A   Unknown
9:00 AM 56.8 °F - 45.3 °F 65% 30.10 in - ENE 4.6 mph - N/A   Unknown
10:00 AM 61.0 °F - 46.0 °F 58% 30.08 in - SSE 8.1 mph - N/A   Unknown
11:00 AM 63.0 °F - 44.6 °F 51% 30.07 in - South 11.5 mph 18.4 mph N/A   Unknown
12:00 PM 63.9 °F - 45.7 °F 52% 30.05 in - South 8.1 mph 18.4 mph N/A   Unknown
1:00 PM 64 °F - 47 °F 43% 30.04 in - South 8.1 mph - -  
1:00 PM 64.2 °F - 46.8 °F 53% 30.04 in - South 8.1 mph - N/A   Unknown
2:00 PM 65.1 °F - 45.0 °F 48% 30.04 in - South 9.2 mph 19.6 mph N/A   Unknown
3:00 PM 64.8 °F - 46.6 °F 52% 30.03 in - South 11.5 mph 20.7 mph N/A   Unknown
4:00 PM 63.0 °F - 45.7 °F 53% 30.04 in - South 11.5 mph 19.6 mph N/A   Unknown
5:00 PM 60.6 °F - 45.0 °F 56% 30.04 in - South 12.7 mph 20.7 mph N/A   Unknown
6:00 PM 60.4 °F - 44.1 °F 55% 30.05 in - South 11.5 mph 20.7 mph N/A   Unknown
7:00 PM 61 °F - 39 °F 33% 30.04 in - South 11.5 mph - -  
7:00 PM 60.8 °F - 39.2 °F 45% 30.04 in - South 11.5 mph 20.7 mph N/A   Unknown
8:00 PM 56.7 °F - 40.6 °F 55% 30.04 in - SSE 10.4 mph - N/A   Unknown
10:00 PM 57.6 °F - 38.5 °F 49% 30.01 in - SSE 10.4 mph - N/A   Unknown
11:00 PM 55.2 °F - 39.0 °F 54% 30.00 in - SE 8.1 mph - N/A   Unknown